EHI
0 0 0 0 0 0 0 0 0 0 0 0 0 0 0 0 0 0 0 0 0 0 0 0 0 0 0 0 0 1 1 1 0 0 0 0 0 0 0 0 0 0 0 0
0 0 0 0 0 0 0 0 0 0 0 0 0 0 0 0 0 0 0 0 0 0 0 0 0 0 0 0 0 0 0 0 0 0 0 0 0 0 0 0 0 0 0 0
0 0 0 0 0 0 0 0 0 0 0 0 0 0 0 0 0 0 0 0 0 0 0 0 0 0 0 0 0 0 0 0 0 0 1 1 0 1 2 1 1 0 0 0
0 0 0 0 0 0 0 0 0 0 0 0 0 0 0 0 0 0 0 0 0 0 0 0 0 0 0 0 0 0 0 0 0 0 1 1 1 1 2 2 2 1 0 0
0 0 0 0 0 0 0 0 0 0 0 0 0 0 0 0 0 0 0 0 0 0 0 0 0 0 0 0 0 0 0 0 0 0 1 1 0 1 1 2 2 1 0 0
0 0 0 0 0 0 0 0 0 0 0 0 0 0 0 0 0 0 0 0 0 0 0 0 0 0 0 0 0 0 0 0 0 0 0 0 0 0 0 1 1 0 0 0
0 0 0 0 0 0 0 0 0 0 0 0 0 0 0 0 0 0 0 0 0 0 0 0 0 0 0 0 0 0 0 0 0 0 0 0 0 0 0 0 0 0 0 0
0 0 0 0 0 0 0 0 0 0 0 0 0 0 0 0 0 0 0 0 0 0 0 0 0 0 0 0 0 0 0 0 0 0 0 0 0 0 0 0 0 0 0 0
0 0 0 0 0 0 0 0 0 0 0 0 0 0 0 0 0 0 0 0 0 0 0 0 0 0 0 0 0 0 0 0 0 0 0 0 0 0 0 0 0 0 0 0
0 0 0 0 0 0 0 0 0 0 0 0 0 0 0 0 0 0 0 0 0 0 0 0 0 0 0 0 0 0 0 0 0 0 0 0 0 0 0 0 0 0 0 0
0 0 0 0 0 0 0 0 0 0 0 0 0 0 0 0 0 0 0 0 0 0 0 0 0 0 0 0 0 0 0 0 0 0 0 0 0 0 0 0 0 0 0 0
0 0 0 0 0 0 0 0 0 0 0 0 0 0 0 0 0 0 0 0 0 0 0 0 0 0 0 0 0 0 0 0 0 0 0 0 0 0 0 0 0 0 0 0
0 0 0 0 0 0 0 0 0 0 0 0 0 0 0 0 0 0 0 0 0 0 0 0 0 0 0 0 0 0 0 0 0 0 0 0 0 0 0 0 0 0 0 0
0 0 0 0 0 0 0 0 0 0 0 0 0 0 0 0 0 0 0 0 0 0 0 0 0 0 0 0 0 0 0 0 0 0 0 0 0 0 0 0 0 0 0 0
0 0 0 0 0 0 0 0 0 0 0 0 0 0 0 0 0 0 0 0 0 0 0 0 0 0 0 0 0 0 0 0 0 0 0 0 0 0 0 0 0 0 0 0
0 0 0 0 0 0 0 0 0 0 0 0 0 0 0 0 0 0 0 0 0 0 0 0 0 0 0 0 0 0 0 0 0 0 0 0 0 0 0 0 0 0 0 0
0 0 0 0 0 0 0 0 0 0 0 0 0 0 0 0 0 0 0 0 0 0 0 0 0 0 0 0 0 0 0 0 0 0 0 0 0 0 0 0 0 0 0 0
0 0 0 0 0 0 0 0 0 0 0 0 0 0 0 0 0 0 0 0 0 0 0 0 0 0 0 0 0 0 0 0 0 0 0 0 0 0 0 0 0 0 0 0
0 0 0 0 0 0 0 0 0 0 0 0 0 0 0 0 0 0 0 0 0 0 0 0 0 0 0 0 0 0 0 0 0 0 0 0 0 0 0 0 0 0 0 0
0 0 0 0 0 0 0 0 0 0 0 0 0 0 0 0 0 0 0 0 0 0 0 0 0 0 0 0 0 0 0 0 0 0 0 0 0 0 0 0 0 0 0 0
0 0 0 0 0 0 0 0 0 0 0 0 0 0 0 0 0 0 0 0 0 0 0 0 0 0 0 0 0 0 0 0 0 0 0 0 0 0 0 0 0 0 0 0
0 0 0 0 0 0 0 0 0 0 0 0 0 0 0 0 0 0 0 0 0 0 0 0 0 0 0 0 0 0 0 0 0 0 0 0 0 0 0 0 0 0 0 0
0 0 0 0 0 0 0 0 0 0 0 0 0 0 0 0 0 0 0 0 0 0 0 0 0 0 0 0 0 0 0 0 0 0 0 0 0 0 0 0 0 0 0 0
0 0 0 0 0 0 0 0 0 0 0 0 0 0 0 0 0 0 0 0 0 0 0 0 0 0 0 0 0 0 0 0 0 0 0 0 0 0 0 0 0 0 0 0
0 0 0 0 0 0 0 0 0 0 0 0 0 0 0 0 0 0 0 0 0 0 0 0 0 0 0 0 0 0 0 0 0 0 0 0 0 0 0 0 0 0 0 0
0 0 0 0 0 0 0 0 0 0 0 0 0 0 0 0 0 0 0 0 0 0 0 0 0 0 0 0 0 0 0 0 0 0 0 0 0 0 0 0 0 0 0 0
Wind_Speed
3 2 3 4 5 5 6 7 9 6 3 4 8 11 9 5 4 4 3 2 2 1 2 3 3 2 2 2 2 2 2 1 1 1 1 1 1 1 1 1 2 2 2 2
2 5 4 3 3 5 6 8 8 5 3 4 7 11 9 6 5 4 3 2 1 1 2 2 3 2 2 1 1 2 2 1 0 1 1 1 1 1 1 2 2 2 2 3
4 1 0 2 3 5 6 6 6 6 6 5 6 9 8 5 3 1 1 1 2 2 1 1 1 2 2 2 2 2 2 1 1 0 1 1 1 1 1 1 2 2 2 3
5 1 1 3 4 4 6 3 5 5 4 4 3 7 6 4 3 3 2 1 1 1 1 1 1 1 1 1 2 2 2 3 1 1 1 1 1 2 1 1 2 2 2 2
3 1 2 4 4 3 3 4 5 6 5 6 5 6 8 3 3 3 2 1 2 1 2 1 1 1 1 1 1 2 2 2 2 2 1 1 1 2 2 2 3 2 2 2
2 0 1 2 2 1 2 3 4 4 2 6 7 7 6 3 3 2 2 2 2 2 1 1 2 2 2 2 2 2 2 2 2 2 2 2 2 2 2 2 2 2 1 1
3 2 1 0 0 1 1 0 1 2 3 7 3 5 6 1 1 2 3 3 2 2 1 1 1 1 2 2 2 2 2 2 2 1 2 1 2 2 2 2 2 2 1 1
3 4 5 3 2 2 3 2 3 4 4 4 2 7 4 1 2 3 3 3 3 2 1 1 1 1 1 1 1 1 1 1 1 1 1 1 2 1 1 1 1 2 1 1
4 3 3 2 1 1 2 3 2 3 4 5 7 5 3 2 1 1 2 2 2 2 1 0 1 1 0 0 1 1 1 1 1 1 1 1 2 2 1 1 1 1 1 1
1 3 2 1 1 3 2 2 1 3 3 6 7 6 5 3 3 2 2 2 1 1 1 1 1 1 1 1 1 1 1 1 1 1 1 1 1 1 1 1 1 1 1 1
1 2 2 2 6 6 4 3 4 3 3 4 6 6 1 2 3 3 2 2 2 1 1 1 1 0 0 0 0 1 1 1 1 1 0 1 0 0 0 0 0 0 1 1
3 2 4 5 2 2 5 6 6 5 6 5 6 8 1 1 1 2 1 1 2 2 1 1 1 1 0 0 0 1 1 1 1 1 0 1 0 1 0 0 0 0 0 0
4 4 2 2 2 2 4 5 6 4 3 6 7 9 0 1 0 1 1 1 1 2 2 1 2 1 1 1 1 1 1 1 1 1 0 0 0 0 0 1 1 0 0 0
4 5 7 9 5 4 6 7 7 6 6 8 12 12 7 4 3 3 2 2 2 2 1 1 1 1 1 1 1 1 1 1 1 1 1 1 1 1 1 1 1 1 1 1
4 5 7 9 7 6 9 11 12 14 13 13 14 14 12 6 5 4 3 3 2 2 2 2 1 1 1 1 1 1 1 1 1 1 1 1 1 1 1 1 1 1 1 1
4 4 3 7 7 7 11 14 14 16 15 17 16 17 9 6 4 3 3 3 3 3 3 3 2 2 2 2 2 2 2 1 1 1 1 1 1 1 1 1 1 1 2 2
6 5 4 7 4 4 13 14 14 12 11 11 15 15 4 4 5 5 5 4 4 4 4 3 3 3 3 2 2 2 2 1 1 1 1 1 1 1 1 1 1 1 2 2
7 6 4 3 2 11 11 4 9 12 12 10 9 7 5 6 5 5 4 4 4 3 2 2 2 2 2 2 2 1 1 1 1 1 1 1 1 2 2 2 2 2 2 2
8 8 5 4 7 12 9 5 6 8 10 9 9 9 6 4 4 5 3 2 3 3 3 2 2 2 1 1 1 1 1 1 1 2 2 2 2 2 3 3 3 2 2 3
6 6 6 6 8 11 8 4 4 4 10 7 7 8 7 2 5 7 2 2 2 1 1 1 1 1 1 1 1 1 2 2 2 3 3 3 2 3 3 3 3 2 2 3
7 8 11 11 10 10 5 3 5 6 9 3 6 7 6 6 7 4 1 1 1 1 1 1 1 1 1 1 1 2 2 3 3 2 2 2 2 2 3 2 2 2 2 2
11 9 10 8 10 12 4 6 8 7 2 1 2 3 4 4 3 1 0 1 1 1 1 1 1 1 0 1 2 1 2 3 2 1 1 2 2 2 1 1 2 2 2 3
9 10 7 9 9 4 6 6 4 2 2 2 2 2 3 3 3 2 1 2 1 2 2 1 2 1 0 0 1 2 2 1 1 1 1 2 2 2 1 1 2 2 2 2
5 3 4 6 7 5 4 3 2 2 3 3 2 3 3 4 3 3 3 2 2 2 2 1 2 1 1 0 0 1 1 0 0 1 2 2 1 2 1 1 1 2 2 2
5 4 5 8 7 4 5 6 5 3 2 2 2 3 4 4 4 4 3 3 3 2 1 2 2 2 1 0 0 1 1 0 0 1 2 2 2 2 1 2 2 3 3 4
7 8 9 10 7 6 7 5 5 4 5 4 4 3 3 4 5 4 4 3 3 2 2 2 2 2 1 0 1 1 1 0 1 1 1 1 1 1 2 2 3 5 5 7
Wind_Direction
182 224 226 229 234 273 301 287 284 293 313 285 269 273 276 264 250 259 251 219 202 184 113 97 79 60 57 39 33 45 46 48 90 124 136 142 145 134 132 136 125 125 125 120
195 237 251 278 269 273 278 281 285 300 321 299 286 281 279 260 235 234 238 226 185 96 61 79 75 58 41 28 8 36 41 12 143 165 155 168 162 149 141 119 96 116 127 125
219 260 311 270 275 275 272 273 289 300 312 271 286 280 250 240 211 211 214 114 92 119 96 67 77 60 35 21 2 359 8 10 18 27 119 119 119 112 108 108 103 94 118 119
247 258 277 260 263 269 274 306 306 303 303 277 235 285 268 227 209 206 190 144 106 111 108 85 77 64 28 2 357 7 17 20 35 50 88 132 153 147 130 114 107 93 90 113
234 179 242 253 269 271 288 338 300 279 271 281 248 256 273 224 224 214 179 130 90 83 90 85 94 71 43 30 16 11 24 26 20 33 50 122 103 93 96 98 101 94 85 87
252 274 252 272 324 283 319 315 289 269 259 261 231 226 268 232 228 174 129 113 99 74 71 58 56 51 44 32 22 17 19 19 13 21 44 63 98 108 108 104 108 97 91 85
227 205 193 218 224 173 220 266 314 281 234 247 214 229 250 264 50 107 120 120 115 102 86 83 75 56 45 35 20 9 17 12 8 29 63 67 68 97 128 134 132 122 111 101
221 232 182 181 180 193 220 220 208 239 258 282 264 242 243 174 79 83 104 110 105 108 102 97 90 61 28 9 4 14 14 12 18 63 75 69 79 79 77 109 129 144 153 153
214 234 131 164 214 173 199 226 269 282 288 277 252 242 244 180 127 134 129 115 106 111 122 138 114 76 26 350 352 7 34 19 17 58 77 53 57 71 60 46 105 128 128 136
231 253 199 138 253 252 250 238 192 209 248 266 266 250 247 227 221 197 184 182 176 167 176 162 141 109 38 353 346 354 24 41 16 73 103 88 48 57 65 52 39 119 134 127
219 198 212 191 207 203 194 215 220 226 236 248 274 265 279 175 179 195 211 192 181 191 183 173 157 69 33 17 7 350 340 359 15 25 95 96 90 73 64 66 24 37 147 151
178 189 230 226 226 259 217 212 199 208 237 238 262 268 317 106 131 168 183 181 172 182 207 184 163 169 176 241 278 293 308 327 338 324 165 146 130 109 106 356 339 7 22 149
162 176 220 242 232 242 236 227 224 236 246 236 244 262 202 103 74 205 209 221 223 210 203 179 168 176 198 260 287 295 301 308 321 318 172 131 138 212 239 266 289 282 314 332
189 203 214 224 236 199 233 234 227 222 232 243 241 257 267 266 269 275 261 231 229 217 200 203 219 212 244 280 283 285 300 316 320 308 192 193 219 230 236 230 227 232 232 254
180 224 239 261 271 244 245 237 226 225 229 239 253 257 260 251 246 251 249 244 232 233 242 239 247 253 268 296 300 299 306 325 313 290 250 236 244 243 228 225 223 226 224 228
189 222 238 263 259 260 265 251 236 237 238 244 258 264 260 253 253 252 249 246 245 247 243 243 244 258 266 270 270 281 291 298 300 280 283 288 257 237 223 234 243 230 233 237
190 193 214 251 252 284 257 236 225 228 227 226 243 254 270 262 255 246 245 235 233 244 244 234 234 236 245 248 253 250 265 284 279 277 297 313 294 254 240 239 241 247 247 250
193 199 213 236 221 237 243 207 205 224 239 232 241 256 252 250 256 251 227 216 244 250 247 235 232 240 242 245 245 250 260 245 258 270 278 283 279 276 267 250 244 252 258 253
204 197 207 210 235 258 262 233 197 209 244 231 234 252 262 276 287 260 225 211 228 231 237 232 215 221 225 225 223 220 239 235 243 262 274 275 266 263 261 249 250 264 261 262
212 205 209 216 229 241 243 196 175 181 252 234 215 234 242 233 255 257 210 181 203 224 224 210 181 177 195 205 177 190 227 240 252 260 266 267 258 253 254 257 261 267 259 259
191 206 216 224 236 251 240 159 130 188 246 237 204 216 220 221 235 254 157 144 159 177 190 154 148 172 200 181 166 202 236 252 264 274 279 279 270 262 260 268 273 259 261 265
188 194 207 210 227 243 186 154 189 225 259 205 209 203 207 227 250 266 200 159 151 154 152 140 144 187 237 166 168 212 257 277 301 299 289 288 286 281 277 269 275 267 257 261
209 204 200 204 220 227 172 189 208 201 229 237 226 219 188 209 222 225 217 200 197 184 169 154 158 182 302 146 170 217 268 305 321 320 296 291 294 293 285 265 266 267 255 255
232 222 227 244 245 232 221 223 236 228 229 241 225 207 193 207 210 214 205 202 201 195 183 165 154 174 252 292 272 252 292 323 292 285 292 293 290 295 297 277 261 253 246 248
221 204 227 246 254 266 242 226 231 245 251 258 255 216 198 195 210 211 210 207 202 199 193 176 177 195 243 294 336 329 333 75 237 270 283 290 285 277 283 274 254 254 249 241
210 210 218 237 224 223 242 227 222 225 233 230 230 237 225 208 211 212 212 202 188 187 180 175 183 196 230 9 324 326 328 201 203 259 276 279 285 287 285 288 302 293 287 288